Location: Newark
(41.6500°N, 71.4833°W)
Time: 15:38:37
(UTC+00:00)

A-11 Canister half - Pass Details

Date: 27 January 2020
Orbit: 1517 x 1683 km, 47.2° (Epoch: 23 February)

Event Time Altitude Azimuth Distance (km) Brightness Sun altitude
Rises 01:48:07 0° 194° (SSW) 4,790 11.6 -43.6°
Enters shadow 01:49:16 - 191° (SSW) 4,465 11.4 -43.8°
Reaches altitude 10° 01:51:51 10° 183° (S) 3,781 - -44.3°
Maximum altitude 01:59:23 27° 130° (SE) 2,637 - -45.6°
Drops below altitude 10° 02:06:45 10° 77° (ENE) 3,704 - -46.9°
Sets 02:10:21 0° 66° (ENE) 4,676 - -47.6°
